| time (UTC) | temp C | wind direction | speed KPH | gust KPH | rain 1hr cm | rain 24hr cm | rain mn cm | humidity % | barometer mb |
| 20260510194009 | 22 | 205 | 9.7 | 19.3 | 0.00 | 0.28 | 0.00 | 58 | 1011.1 |
| 20260510193509 | 22 | 240 | 9.7 | 19.3 | 0.00 | 0.30 | 0.00 | 59 | 1011.2 |
| 20260510193030 | 21 | 200 | 8.0 | 14.5 | 0.00 | 0.30 | 0.00 | 63 | 1011.4 |
| 20260510192511 | 21 | 233 | 6.4 | 14.5 | 0.00 | 0.30 | 0.00 | 63 | 1011.5 |
| 20260510192012 | 21 | 151 | 8.0 | 14.5 | 0.00 | 0.30 | 0.00 | 64 | 1011.4 |
| 20260510191526 | 21 | 228 | 8.0 | 14.5 | 0.00 | 0.30 | 0.00 | 63 | 1011.5 |
| 20260510191007 | 21 | 173 | 6.4 | 16.1 | 0.00 | 0.33 | 0.00 | 63 | 1011.5 |
| 20260510190506 | 21 | 165 | 9.7 | 16.1 | 0.00 | 0.33 | 0.00 | 63 | 1011.5 |
| 20260510190017 | 21 | 200 | 9.7 | 14.5 | 0.00 | 0.33 | 0.00 | 62 | 1011.4 |
| 20260510185507 | 21 | 183 | 8.0 | 19.3 | 0.00 | 0.33 | 0.00 | 63 | 1011.5 |
| 20260510185008 | 21 | 205 | 11.3 | 19.3 | 0.00 | 0.33 | 0.00 | 62 | 1011.4 |
| 20260510184517 | 21 | 248 | 8.0 | 19.3 | 0.00 | 0.33 | 0.00 | 63 | 1011.5 |
| 20260510184008 | 21 | 190 | 6.4 | 17.7 | 0.00 | 0.33 | 0.00 | 63 | 1011.5 |
| 20260510183510 | 21 | 199 | 8.0 | 19.3 | 0.00 | 0.33 | 0.00 | 63 | 1011.5 |
| 20260510183020 | 21 | 169 | 8.0 | 19.3 | 0.00 | 0.33 | 0.00 | 64 | 1011.4 |
| 20260510182511 | 20 | 198 | 6.4 | 9.7 | 0.00 | 0.33 | 0.00 | 65 | 1011.4 |
| 20260510182010 | 20 | 106 | 1.6 | 14.5 | 0.00 | 0.33 | 0.00 | 67 | 1011.4 |
| 20260510181533 | 20 | 163 | 3.2 | 17.7 | 0.00 | 0.33 | 0.00 | 68 | 1011.5 |
| 20260510181011 | 20 | 173 | 8.0 | 20.9 | 0.00 | 0.33 | 0.00 | 66 | 1011.5 |
| 20260510180511 | 20 | 182 | 8.0 | 24.1 | 0.00 | 0.33 | 0.00 | 65 | 1011.4 |
| 20260510180011 | 20 | 196 | 11.3 | 24.1 | 0.00 | 0.33 | 0.00 | 65 | 1011.4 |
| 20260510175506 | 20 | 135 | 9.7 | 19.3 | 0.00 | 0.33 | 0.00 | 65 | 1011.5 |
| 20260510175008 | 20 | 202 | 11.3 | 19.3 | 0.00 | 0.33 | 0.00 | 65 | 1011.4 |
| 20260510174518 | 20 | 223 | 6.4 | 29.0 | 0.00 | 0.33 | 0.00 | 65 | 1011.3 |
| 20260510174008 | 20 | 139 | 11.3 | 29.0 | 0.00 | 0.33 | 0.00 | 65 | 1011.2 |
| 20260510173508 | 20 | 98 | 4.8 | 30.6 | 0.00 | 0.36 | 0.00 | 65 | 1011.2 |
| 20260510173021 | 20 | 143 | 3.2 | 30.6 | 0.00 | 0.36 | 0.00 | 65 | 1011.5 |
| 20260510172511 | 21 | 179 | 12.9 | 27.4 | 0.00 | 0.36 | 0.00 | 64 | 1011.4 |
| 20260510172009 | 21 | 159 | 8.0 | 22.5 | 0.00 | 0.36 | 0.00 | 63 | 1011.5 |
| 20260510171525 | 21 | 153 | 11.3 | 22.5 | 0.00 | 0.36 | 0.00 | 63 | 1011.5 |
| 20260510171008 | 21 | 200 | 6.4 | 20.9 | 0.00 | 0.38 | 0.00 | 62 | 1011.5 |
| 20260510170511 | 21 | 173 | 8.0 | 19.3 | 0.00 | 0.38 | 0.00 | 62 | 1011.7 |
| 20260510170028 | 20 | 204 | 11.3 | 19.3 | 0.00 | 0.38 | 0.00 | 61 | 1011.7 |
| 20260510165508 | 20 | 235 | 6.4 | 24.1 | 0.00 | 0.38 | 0.00 | 65 | 1011.8 |
| 20260510165011 | 20 | 159 | 14.5 | 22.5 | 0.00 | 0.38 | 0.00 | 66 | 1011.8 |
| 20260510164518 | 20 | 211 | 9.7 | 16.1 | 0.00 | 0.41 | 0.00 | 68 | 1011.9 |
| 20260510164008 | 20 | 139 | 8.0 | 16.1 | 0.00 | 0.41 | 0.00 | 65 | 1012.0 |
| 20260510163507 | 20 | 193 | 8.0 | 14.5 | 0.00 | 0.41 | 0.00 | 65 | 1012.0 |
| 20260510163019 | 20 | 211 | 9.7 | 25.7 | 0.00 | 0.41 | 0.00 | 65 | 1012.1 |
| 20260510162508 | 20 | 146 | 11.3 | 25.7 | 0.00 | 0.41 | 0.00 | 65 | 1012.1 |
| 20260510162008 | 20 | 212 | 14.5 | 20.9 | 0.00 | 0.41 | 0.00 | 70 | 1012.2 |
| 20260510161524 | 19 | 199 | 8.0 | 20.9 | 0.00 | 0.43 | 0.00 | 70 | 1012.1 |
| 20260510161013 | 19 | 207 | 9.7 | 20.9 | 0.00 | 0.43 | 0.00 | 67 | 1012.2 |
| 20260510160511 | 19 | 192 | 9.7 | 22.5 | 0.00 | 0.43 | 0.00 | 70 | 1012.2 |
| 20260510160028 | 18 | 167 | 14.5 | 24.1 | 0.00 | 0.43 | 0.00 | 70 | 1012.2 |
| 20260510155511 | 18 | 168 | 12.9 | 24.1 | 0.00 | 0.43 | 0.00 | 69 | 1012.3 |
| 20260510155011 | 18 | 142 | 4.8 | 19.3 | 0.00 | 0.43 | 0.00 | 74 | 1012.3 |
| 20260510154543 | 17 | 211 | 8.0 | 19.3 | 0.00 | 0.43 | 0.00 | 73 | 1012.5 |
| 20260510154008 | 17 | 219 | 8.0 | 17.7 | 0.00 | 0.43 | 0.00 | 72 | 1012.5 |
| 20260510153510 | 18 | 230 | 8.0 | 19.3 | 0.00 | 0.46 | 0.00 | 72 | 1012.5 |
| 20260510152511 | 18 | 236 | 4.8 | 14.5 | 0.00 | 0.46 | 0.00 | 72 | 1012.6 |
| 20260510152012 | 17 | 238 | 9.7 | 20.9 | 0.00 | 0.46 | 0.00 | 72 | 1012.6 |
| 20260510151520 | 17 | 234 | 6.4 | 20.9 | 0.00 | 0.46 | 0.00 | 73 | 1012.7 |
| 20260510151008 | 17 | 176 | 4.8 | 17.7 | 0.00 | 0.46 | 0.00 | 76 | 1012.7 |
| 20260510150511 | 17 | 195 | 9.7 | 17.7 | 0.00 | 0.46 | 0.00 | 75 | 1012.6 |
| 20260510150024 | 17 | 157 | 6.4 | 17.7 | 0.00 | 0.46 | 0.00 | 75 | 1012.5 |
| 20260510145507 | 16 | 173 | 4.8 | 12.9 | 0.00 | 0.46 | 0.00 | 78 | 1012.5 |
| 20260510145010 | 16 | 173 | 4.8 | 19.3 | 0.00 | 0.46 | 0.00 | 79 | 1012.6 |
| 20260510144530 | 15 | 175 | 12.9 | 19.3 | 0.00 | 0.46 | 0.00 | 79 | 1012.7 |
| 20260510144013 | 15 | 228 | 8.0 | 16.1 | 0.00 | 0.48 | 0.00 | 79 | 1012.7 |
| 20260510143513 | 15 | 221 | 8.0 | 19.3 | 0.00 | 0.48 | 0.00 | 80 | 1012.7 |
| 20260510143017 | 15 | 224 | 11.3 | 17.7 | 0.00 | 0.48 | 0.00 | 80 | 1012.8 |
| 20260510142505 | 15 | 211 | 4.8 | 16.1 | 0.00 | 0.48 | 0.00 | 81 | 1012.8 |
| 20260510142010 | 15 | 187 | 8.0 | 16.1 | 0.00 | 0.48 | 0.00 | 83 | 1012.8 |
| 20260510141518 | 14 | 206 | 9.7 | 14.5 | 0.00 | 0.48 | 0.00 | 81 | 1012.8 |
| 20260510141012 | 15 | 232 | 6.4 | 16.1 | 0.00 | 0.48 | 0.00 | 82 | 1012.8 |
| 20260510140509 | 15 | 244 | 8.0 | 16.1 | 0.00 | 0.48 | 0.00 | 83 | 1012.9 |
| 20260510140024 | 14 | 174 | 8.0 | 12.9 | 0.00 | 0.48 | 0.00 | 82 | 1012.9 |
| 20260510135510 | 14 | 167 | 8.0 | 12.9 | 0.00 | 0.48 | 0.00 | 83 | 1012.9 |
| 20260510135010 | 14 | 87 | 3.2 | 11.3 | 0.00 | 0.48 | 0.00 | 84 | 1012.8 |
| 20260510134505 | 13 | 196 | 6.4 | 11.3 | 0.00 | 0.51 | 0.00 | 85 | 1012.9 |
| 20260510134003 | 13 | 196 | 4.8 | 11.3 | 0.00 | 0.51 | 0.00 | 87 | 1013.0 |
| 20260510133504 | 13 | 206 | 3.2 | 11.3 | 0.00 | 0.51 | 0.00 | 87 | 1013.0 |
| 20260510133005 | 12 | 229 | 6.4 | 12.9 | 0.00 | 0.51 | 0.00 | 87 | 1013.1 |
| 20260510132506 | 12 | 150 | 4.8 | 12.9 | 0.00 | 0.51 | 0.00 | 89 | 1013.0 |
| 20260510132003 | 12 | 186 | 8.0 | 12.9 | 0.00 | 0.51 | 0.00 | 88 | 1013.0 |
| 20260510131519 | 12 | 225 | 3.2 | 9.7 | 0.00 | 0.51 | 0.00 | 89 | 1012.9 |
| 20260510131004 | 12 | 194 | 4.8 | 9.7 | 0.00 | 0.53 | 0.00 | 89 | 1012.9 |
| 20260510130505 | 12 | 174 | 3.2 | 8.0 | 0.00 | 0.53 | 0.00 | 89 | 1012.9 |
| 20260510130004 | 12 | 158 | 4.8 | 9.7 | 0.00 | 0.53 | 0.00 | 89 | 1012.9 |
| 20260510125505 | 12 | 119 | 3.2 | 9.7 | 0.00 | 0.56 | 0.00 | 89 | 1012.8 |
| 20260510125005 | 12 | 181 | 3.2 | 9.7 | 0.00 | 0.56 | 0.00 | 89 | 1012.8 |
| 20260510124506 | 12 | 205 | 3.2 | 9.7 | 0.00 | 0.56 | 0.00 | 90 | 1012.7 |
| 20260510124006 | 12 | 163 | 4.8 | 9.7 | 0.00 | 0.56 | 0.00 | 91 | 1012.7 |
| 20260510123502 | 12 | 206 | 1.6 | 8.0 | 0.00 | 0.58 | 0.00 | 92 | 1012.7 |
| 20260510123008 | 12 | 225 | 4.8 | 8.0 | 0.00 | 0.58 | 0.00 | 91 | 1012.7 |
| 20260510122506 | 12 | 164 | 1.6 | 8.0 | 0.00 | 0.58 | 0.00 | 92 | 1012.6 |
| 20260510122003 | 12 | 160 | 3.2 | 8.0 | 0.00 | 0.58 | 0.00 | 92 | 1012.7 |
| 20260510121508 | 11 | 205 | 4.8 | 8.0 | 0.00 | 0.58 | 0.00 | 93 | 1012.7 |
| 20260510120509 | 11 | 227 | 4.8 | 8.0 | 0.00 | 0.61 | 0.00 | 92 | 1012.7 |
| 20260510120010 | 11 | 229 | 0.0 | 4.8 | 0.00 | 0.61 | 0.00 | 93 | 1012.7 |
| 20260510115503 | 11 | 173 | 0.0 | 3.2 | 0.00 | 0.61 | 0.00 | 93 | 1012.7 |
| 20260510115007 | 11 | 140 | 0.0 | 4.8 | 0.00 | 0.61 | 0.00 | 94 | 1012.7 |
| 20260510114505 | 11 | 140 | 1.6 | 4.8 | 0.00 | 0.61 | 0.00 | 94 | 1012.7 |
| 20260510114007 | 11 | 200 | 3.2 | 4.8 | 0.00 | 0.61 | 0.00 | 94 | 1012.7 |
| 20260510113508 | 11 | 202 | 1.6 | 4.8 | 0.00 | 0.61 | 0.00 | 94 | 1012.8 |
| 20260510113013 | 11 | 158 | 3.2 | 4.8 | 0.00 | 0.61 | 0.00 | 94 | 1012.7 |
| 20260510112506 | 11 | 200 | 0.0 | 4.8 | 0.00 | 0.61 | 0.00 | 94 | 1012.7 |
| 20260510112007 | 11 | 200 | 1.6 | 4.8 | 0.00 | 0.61 | 0.00 | 95 | 1012.7 |
| 20260510111509 | 11 | 184 | 1.6 | 4.8 | 0.00 | 0.61 | 0.00 | 95 | 1012.5 |
| 20260510111004 | 11 | 201 | 0.0 | 4.8 | 0.00 | 0.61 | 0.00 | 95 | 1012.4 |
| 20260510110507 | 11 | 209 | 1.6 | 4.8 | 0.00 | 0.61 | 0.00 | 95 | 1012.5 |
| 20260510110008 | 11 | 188 | 1.6 | 4.8 | 0.00 | 0.61 | 0.00 | 95 | 1012.5 |
| 20260510105507 | 11 | 221 | 3.2 | 12.9 | 0.00 | 0.61 | 0.00 | 95 | 1012.4 |
| 20260510104508 | 11 | 205 | 3.2 | 4.8 | 0.00 | 0.64 | 0.00 | 95 | 1012.3 |
| 20260510104006 | 11 | 219 | 1.6 | 4.8 | 0.00 | 0.64 | 0.00 | 95 | 1012.3 |
| 20260510103502 | 11 | 181 | 0.0 | 6.4 | 0.00 | 0.66 | 0.00 | 96 | 1012.1 |
| 20260510103008 | 10 | 207 | 1.6 | 8.0 | 0.00 | 0.66 | 0.00 | 95 | 1012.1 |
| 20260510102506 | 10 | 162 | 1.6 | 8.0 | 0.00 | 0.66 | 0.00 | 95 | 1011.9 |
| 20260510102010 | 10 | 224 | 3.2 | 9.7 | 0.00 | 0.69 | 0.00 | 96 | 1012.0 |
| 20260510101511 | 10 | 219 | 3.2 | 9.7 | 0.00 | 0.69 | 0.00 | 96 | 1011.8 |
| 20260510101003 | 10 | 198 | 6.4 | 9.7 | 0.00 | 0.71 | 0.00 | 96 | 1011.8 |
| 20260510100507 | 10 | 167 | 4.8 | 9.7 | 0.00 | 0.71 | 0.00 | 96 | 1011.7 |
| 20260510100011 | 10 | 219 | 4.8 | 8.0 | 0.00 | 0.71 | 0.00 | 96 | 1011.7 |
| 20260510095510 | 10 | 213 | 3.2 | 12.9 | 0.00 | 0.74 | 0.00 | 96 | 1011.3 |
| 20260510095013 | 10 | 171 | 4.8 | 12.9 | 0.00 | 0.74 | 0.00 | 96 | 1011.0 |
| 20260510094515 | 10 | 166 | 4.8 | 11.3 | 0.00 | 0.76 | 0.00 | 96 | 1011.0 |
| 20260510094005 | 10 | 188 | 4.8 | 12.9 | 0.00 | 0.76 | 0.00 | 96 | 1011.1 |
| 20260510093506 | 10 | 180 | 6.4 | 12.9 | 0.00 | 0.76 | 0.00 | 96 | 1011.0 |
| 20260510093011 | 10 | 187 | 4.8 | 12.9 | 0.00 | 0.79 | 0.00 | 96 | 1011.1 |
| 20260510092505 | 10 | 188 | 4.8 | 12.9 | 0.00 | 0.79 | 0.00 | 96 | 1011.3 |
| 20260510092002 | 10 | 190 | 6.4 | 12.9 | 0.00 | 0.81 | 0.00 | 96 | 1011.2 |
| 20260510091510 | 10 | 196 | 4.8 | 9.7 | 0.00 | 0.81 | 0.00 | 96 | 1011.3 |
| 20260510090506 | 10 | 181 | 3.2 | 6.4 | 0.00 | 0.84 | 0.00 | 96 | 1011.2 |
| 20260510090016 | 10 | 205 | 3.2 | 6.4 | 0.00 | 0.84 | 0.00 | 96 | 1011.2 |
| 20260510085506 | 10 | 147 | 0.0 | 6.4 | 0.00 | 0.86 | 0.00 | 96 | 1011.3 |
| 20260510085005 | 10 | 190 | 3.2 | 6.4 | 0.00 | 0.86 | 0.00 | 96 | 1011.4 |
| 20260510084517 | 10 | 221 | 3.2 | 6.4 | 0.00 | 0.86 | 0.00 | 96 | 1011.5 |
| 20260510083508 | 10 | 159 | 1.6 | 4.8 | 0.00 | 0.86 | 0.00 | 96 | 1011.6 |
| 20260510083012 | 10 | 179 | 1.6 | 4.8 | 0.00 | 0.86 | 0.00 | 96 | 1011.7 |
| 20260510082007 | 10 | 146 | 1.6 | 6.4 | 0.00 | 0.86 | 0.00 | 96 | 1011.7 |
| 20260510081509 | 10 | 196 | 3.2 | 4.8 | 0.00 | 0.86 | 0.00 | 96 | 1011.8 |
| 20260510081004 | 10 | 187 | 1.6 | 4.8 | 0.00 | 0.86 | 0.00 | 96 | 1011.7 |
| 20260510080507 | 10 | 202 | 3.2 | 3.2 | 0.00 | 0.86 | 0.00 | 96 | 1011.8 |
| 20260510080014 | 10 | 227 | 0.0 | 3.2 | 0.00 | 0.86 | 0.00 | 96 | 1011.8 |
| 20260510075007 | 10 | 256 | 0.0 | 0.0 | 0.00 | 0.86 | 0.00 | 96 | 1011.8 |
| 20260510074516 | 10 | 279 | 0.0 | 3.2 | 0.00 | 0.86 | 0.00 | 96 | 1011.7 |
| 20260510074007 | 10 | 279 | 1.6 | 3.2 | 0.00 | 0.86 | 0.00 | 96 | 1011.7 |
| 20260510073507 | 10 | 255 | 0.0 | 3.2 | 0.00 | 0.86 | 0.00 | 96 | 1011.8 |
| 20260510073017 | 10 | 237 | 1.6 | 3.2 | 0.00 | 0.86 | 0.00 | 96 | 1011.6 |
| 20260510072507 | 10 | 200 | 1.6 | 3.2 | 0.00 | 0.86 | 0.00 | 96 | 1011.6 |
| 20260510072010 | 9 | 150 | 0.0 | 3.2 | 0.00 | 0.86 | 0.00 | 96 | 1011.5 |
| 20260510071515 | 9 | 181 | 0.0 | 3.2 | 0.00 | 0.86 | 0.00 | 96 | 1011.5 |
| 20260510071007 | 9 | 111 | 0.0 | 3.2 | 0.00 | 0.86 | 0.00 | 96 | 1011.4 |
| 20260510065504 | 8 | 153 | 0.0 | 3.2 | 0.00 | 0.86 | 0.00 | 96 | 1011.4 |
| 20260510065009 | 8 | 149 | 0.0 | 0.0 | 0.00 | 0.86 | 0.00 | 96 | 1011.5 |
| 20260510064536 | 8 | 167 | 0.0 | 0.0 | 0.00 | 0.86 | 0.00 | 96 | 1011.4 |
| 20260510064008 | 8 | 167 | 0.0 | 0.0 | 0.00 | 0.86 | 0.00 | 96 | 1011.4 |
| 20260510063507 | 8 | 167 | 0.0 | 0.0 | 0.00 | 0.86 | 0.00 | 96 | 1011.6 |
| 20260510063022 | 8 | 167 | 0.0 | 3.2 | 0.00 | 0.86 | 0.00 | 96 | 1011.4 |
| 20260510062510 | 8 | 182 | 0.0 | 4.8 | 0.00 | 0.86 | 0.00 | 96 | 1011.5 |
| 20260510062010 | 8 | 162 | 3.2 | 4.8 | 0.00 | 0.86 | 0.00 | 96 | 1011.4 |
| 20260510061516 | 8 | 194 | 0.0 | 0.0 | 0.00 | 0.86 | 0.00 | 96 | 1011.3 |
| 20260510061008 | 8 | 184 | 0.0 | 0.0 | 0.00 | 0.86 | 0.00 | 96 | 1011.3 |
| 20260510060508 | 8 | 184 | 0.0 | 0.0 | 0.00 | 0.86 | 0.00 | 96 | 1011.4 |
| 20260510060019 | 8 | 184 | 0.0 | 0.0 | 0.00 | 0.86 | 0.00 | 96 | 1011.3 |
| 20260510055507 | 8 | 184 | 0.0 | 0.0 | 0.00 | 0.86 | 0.00 | 96 | 1011.2 |
| 20260510055004 | 7 | 200 | 0.0 | 0.0 | 0.00 | 0.86 | 0.00 | 96 | 1011.1 |
| 20260510054512 | 7 | 245 | 0.0 | 0.0 | 0.00 | 0.86 | 0.00 | 96 | 1011.1 |
| 20260510054007 | 7 | 245 | 0.0 | 0.0 | 0.00 | 0.86 | 0.00 | 95 | 1011.1 |
| 20260510053508 | 8 | 245 | 0.0 | 0.0 | 0.00 | 0.86 | 0.00 | 95 | 1011.3 |
| 20260510053036 | 8 | 245 | 0.0 | 0.0 | 0.00 | 0.86 | 0.00 | 95 | 1011.6 |
| 20260510052510 | 8 | 245 | 0.0 | 3.2 | 0.00 | 0.86 | 0.00 | 95 | 1011.5 |
| 20260510052010 | 8 | 245 | 0.0 | 3.2 | 0.00 | 0.86 | 0.00 | 96 | 1011.6 |
| 20260510051523 | 8 | 246 | 1.6 | 3.2 | 0.00 | 0.86 | 0.00 | 96 | 1011.5 |
| 20260510051014 | 8 | 254 | 0.0 | 3.2 | 0.00 | 0.86 | 0.00 | 96 | 1011.5 |
| 20260510050020 | 8 | 243 | 0.0 | 3.2 | 0.00 | 0.86 | 0.00 | 96 | 1011.3 |
| 20260510045508 | 8 | 261 | 1.6 | 3.2 | 0.00 | 0.86 | 0.00 | 95 | 1011.3 |
| 20260510044520 | 8 | 261 | 1.6 | 1.6 | 0.00 | 0.86 | 0.00 | 95 | 1011.3 |
| 20260510044008 | 9 | 169 | 0.0 | 4.8 | 0.00 | 0.86 | 0.00 | 95 | 1011.1 |
| 20260510043505 | 9 | 169 | 0.0 | 4.8 | 0.00 | 0.86 | 0.00 | 96 | 1011.2 |
| 20260510043016 | 9 | 202 | 3.2 | 4.8 | 0.00 | 0.86 | 0.00 | 96 | 1011.5 |
| 20260510042507 | 9 | 209 | 1.6 | 4.8 | 0.00 | 0.86 | 0.00 | 96 | 1011.5 |
| 20260510042007 | 9 | 227 | 3.2 | 4.8 | 0.00 | 0.86 | 0.00 | 96 | 1011.4 |
| 20260510041521 | 9 | 198 | 1.6 | 3.2 | 0.00 | 0.86 | 0.00 | 96 | 1011.4 |
| 20260510041010 | 10 | 192 | 1.6 | 3.2 | 0.00 | 0.86 | 0.00 | 96 | 1011.4 |
| 20260510040507 | 9 | 173 | 0.0 | 0.0 | 0.00 | 0.86 | 0.00 | 96 | 1011.5 |
| 20260510040023 | 9 | 192 | 0.0 | 0.0 | 0.00 | 0.86 | 0.00 | 96 | 1011.6 |
| 20260510035506 | 9 | 101 | 0.0 | 0.0 | 0.00 | 0.86 | 0.86 | 96 | 1011.6 |
| 20260510035005 | 10 | 273 | 0.0 | 0.0 | 0.00 | 0.86 | 0.86 | 96 | 1011.5 |
| 20260510034507 | 10 | 270 | 0.0 | 0.0 | 0.00 | 0.86 | 0.86 | 96 | 1011.6 |
| 20260510034003 | 10 | 270 | 0.0 | 0.0 | 0.00 | 0.86 | 0.86 | 96 | 1011.7 |
| 20260510033507 | 10 | 270 | 0.0 | 0.0 | 0.00 | 0.86 | 0.86 | 96 | 1011.7 |
| 20260510033014 | 10 | 270 | 0.0 | 0.0 | 0.00 | 0.86 | 0.86 | 96 | 1011.7 |
| 20260510032507 | 10 | 270 | 0.0 | 0.0 | 0.00 | 0.86 | 0.86 | 96 | 1011.7 |
| 20260510032012 | 9 | 270 | 0.0 | 0.0 | 0.00 | 0.86 | 0.86 | 96 | 1011.6 |
| 20260510031524 | 9 | 270 | 0.0 | 0.0 | 0.00 | 0.86 | 0.86 | 96 | 1011.6 |
| 20260510031007 | 9 | 297 | 0.0 | 0.0 | 0.00 | 0.86 | 0.86 | 96 | 1011.6 |
| 20260510030517 | 9 | 302 | 0.0 | 0.0 | 0.00 | 0.86 | 0.86 | 96 | 1011.7 |
| 20260510030024 | 9 | 302 | 0.0 | 0.0 | 0.00 | 0.86 | 0.86 | 96 | 1011.5 |
| 20260510025507 | 9 | 302 | 0.0 | 0.0 | 0.00 | 0.86 | 0.86 | 96 | 1011.5 |
| 20260510025010 | 9 | 302 | 0.0 | 0.0 | 0.00 | 0.86 | 0.86 | 95 | 1011.6 |
| 20260510024519 | 9 | 302 | 0.0 | 0.0 | 0.00 | 0.86 | 0.86 | 95 | 1011.6 |
| 20260510024003 | 9 | 302 | 0.0 | 0.0 | 0.00 | 0.86 | 0.86 | 95 | 1011.6 |
| 20260510023504 | 9 | 302 | 0.0 | 0.0 | 0.00 | 0.86 | 0.86 | 95 | 1011.6 |
| 20260510023009 | 9 | 302 | 0.0 | 0.0 | 0.00 | 0.86 | 0.86 | 96 | 1011.3 |
| 20260510022509 | 9 | 302 | 0.0 | 0.0 | 0.00 | 0.86 | 0.86 | 95 | 1011.5 |
| 20260510022009 | 9 | 5 | 0.0 | 0.0 | 0.00 | 0.86 | 0.86 | 95 | 1011.4 |
| 20260510021524 | 9 | 5 | 0.0 | 0.0 | 0.00 | 0.86 | 0.86 | 95 | 1011.5 |
| 20260510021009 | 9 | 5 | 0.0 | 0.0 | 0.00 | 0.86 | 0.86 | 95 | 1011.6 |
| 20260510020510 | 9 | 5 | 0.0 | 0.0 | 0.00 | 0.86 | 0.86 | 95 | 1011.9 |
| 20260510020027 | 9 | 5 | 0.0 | 0.0 | 0.00 | 0.86 | 0.86 | 95 | 1012.1 |
| 20260510015507 | 9 | 5 | 0.0 | 0.0 | 0.00 | 0.86 | 0.86 | 95 | 1012.1 |
| 20260510015009 | 9 | 5 | 0.0 | 0.0 | 0.00 | 0.86 | 0.86 | 95 | 1012.2 |
| 20260510014522 | 9 | 5 | 0.0 | 0.0 | 0.00 | 0.86 | 0.86 | 95 | 1012.2 |
| 20260510014009 | 9 | 5 | 0.0 | 0.0 | 0.00 | 0.86 | 0.86 | 95 | 1012.1 |
| 20260510013510 | 9 | 306 | 0.0 | 0.0 | 0.00 | 0.86 | 0.86 | 95 | 1012.1 |
| 20260510013023 | 9 | 306 | 0.0 | 0.0 | 0.00 | 0.86 | 0.86 | 95 | 1012.1 |
| 20260510012504 | 9 | 306 | 0.0 | 0.0 | 0.00 | 0.86 | 0.86 | 95 | 1012.1 |
| 20260510012007 | 9 | 196 | 0.0 | 0.0 | 0.00 | 0.86 | 0.86 | 95 | 1011.9 |
| 20260510011510 | 9 | 196 | 0.0 | 0.0 | 0.00 | 0.86 | 0.86 | 95 | 1011.8 |
| 20260510011007 | 9 | 196 | 0.0 | 0.0 | 0.00 | 0.86 | 0.86 | 95 | 1011.6 |
| 20260510010507 | 9 | 196 | 0.0 | 0.0 | 0.00 | 0.86 | 0.86 | 95 | 1011.5 |
| 20260510010017 | 9 | 196 | 0.0 | 0.0 | 0.00 | 0.86 | 0.86 | 95 | 1011.4 |
| 20260510005508 | 9 | 196 | 0.0 | 0.0 | 0.00 | 0.86 | 0.86 | 95 | 1011.3 |
| 20260510005010 | 9 | 69 | 0.0 | 0.0 | 0.00 | 0.86 | 0.86 | 95 | 1011.3 |
| 20260510004520 | 9 | 69 | 0.0 | 0.0 | 0.00 | 0.86 | 0.86 | 95 | 1011.3 |
| 20260510004006 | 9 | 69 | 0.0 | 0.0 | 0.00 | 0.86 | 0.86 | 95 | 1011.3 |
| 20260510003510 | 9 | 69 | 0.0 | 0.0 | 0.00 | 0.86 | 0.86 | 95 | 1011.2 |
| 20260510003028 | 9 | 69 | 0.0 | 0.0 | 0.00 | 0.86 | 0.86 | 95 | 1011.2 |
| 20260510002509 | 9 | 69 | 0.0 | 0.0 | 0.00 | 0.86 | 0.86 | 95 | 1011.2 |
| 20260510002008 | 9 | 69 | 0.0 | 0.0 | 0.00 | 0.86 | 0.86 | 95 | 1011.2 |
| 20260510001512 | 9 | 69 | 0.0 | 0.0 | 0.00 | 0.86 | 0.86 | 95 | 1011.2 |
| 20260510001007 | 9 | 69 | 0.0 | 0.0 | 0.03 | 0.86 | 0.86 | 95 | 1011.2 |
| 20260510000506 | 9 | 69 | 0.0 | 0.0 | 0.03 | 0.86 | 0.86 | 95 | 1011.1 |
| 20260510000018 | 9 | 69 | 0.0 | 0.0 | 0.03 | 0.86 | 0.86 | 95 | 1011.2 |
| 20260509235509 | 9 | 69 | 0.0 | 0.0 | 0.03 | 0.86 | 0.86 | 95 | 1011.2 |
| 20260509235009 | 9 | 69 | 0.0 | 0.0 | 0.03 | 0.86 | 0.86 | 95 | 1011.2 |
| 20260509234519 | 9 | 69 | 0.0 | 0.0 | 0.03 | 0.86 | 0.86 | 95 | 1011.2 |
| 20260509234009 | 9 | 329 | 0.0 | 3.2 | 0.03 | 0.86 | 0.86 | 95 | 1011.4 |
| 20260509233506 | 9 | 329 | 0.0 | 3.2 | 0.03 | 0.86 | 0.86 | 95 | 1011.4 |
| 20260509233022 | 9 | 271 | 0.0 | 0.0 | 0.03 | 0.86 | 0.86 | 95 | 1011.5 |
| 20260509232507 | 9 | 271 | 0.0 | 0.0 | 0.03 | 0.86 | 0.86 | 95 | 1011.4 |
| 20260509232010 | 9 | 271 | 0.0 | 0.0 | 0.05 | 0.86 | 0.86 | 95 | 1011.2 |
| 20260509231524 | 9 | 271 | 0.0 | 0.0 | 0.05 | 0.86 | 0.86 | 95 | 1011.2 |
| 20260509231007 | 9 | 271 | 0.0 | 0.0 | 0.03 | 0.84 | 0.84 | 95 | 1011.2 |
| 20260509230504 | 9 | 271 | 0.0 | 0.0 | 0.03 | 0.84 | 0.84 | 95 | 1011.2 |
| 20260509230012 | 9 | 271 | 0.0 | 0.0 | 0.03 | 0.84 | 0.84 | 95 | 1011.2 |
| 20260509225503 | 9 | 271 | 0.0 | 0.0 | 0.03 | 0.84 | 0.84 | 95 | 1011.2 |
| 20260509225009 | 9 | 271 | 0.0 | 3.2 | 0.03 | 0.84 | 0.84 | 95 | 1011.2 |
| 20260509224516 | 9 | 269 | 0.0 | 3.2 | 0.03 | 0.84 | 0.84 | 95 | 1011.1 |
| 20260509224010 | 9 | 88 | 0.0 | 0.0 | 0.05 | 0.84 | 0.84 | 95 | 1011.0 |
| 20260509223509 | 9 | 104 | 0.0 | 0.0 | 0.05 | 0.84 | 0.84 | 95 | 1011.1 |
| 20260509223022 | 9 | 104 | 0.0 | 0.0 | 0.08 | 0.84 | 0.84 | 95 | 1011.0 |
| 20260509222507 | 9 | 229 | 0.0 | 0.0 | 0.08 | 0.84 | 0.84 | 95 | 1011.0 |
| 20260509222012 | 9 | 230 | 0.0 | 0.0 | 0.05 | 0.81 | 0.81 | 95 | 1011.3 |
| 20260509221526 | 9 | 225 | 0.0 | 0.0 | 0.08 | 0.81 | 0.81 | 95 | 1011.3 |
| 20260509221009 | 9 | 175 | 0.0 | 0.0 | 0.08 | 0.81 | 0.81 | 95 | 1011.2 |
| 20260509220507 | 9 | 49 | 0.0 | 0.0 | 0.08 | 0.81 | 0.81 | 95 | 1011.2 |
| 20260509220035 | 9 | 49 | 0.0 | 0.0 | 0.08 | 0.81 | 0.81 | 94 | 1011.3 |
| 20260509215511 | 9 | 49 | 0.0 | 0.0 | 0.08 | 0.81 | 0.81 | 94 | 1011.2 |
| 20260509215004 | 9 | 53 | 0.0 | 0.0 | 0.10 | 0.81 | 0.81 | 94 | 1011.1 |
| 20260509214513 | 8 | 53 | 0.0 | 0.0 | 0.10 | 0.81 | 0.81 | 94 | 1011.1 |
| 20260509214007 | 8 | 53 | 0.0 | 0.0 | 0.10 | 0.79 | 0.79 | 94 | 1011.1 |
| 20260509213508 | 8 | 53 | 0.0 | 0.0 | 0.10 | 0.79 | 0.79 | 94 | 1011.1 |
| 20260509213020 | 8 | 53 | 0.0 | 1.6 | 0.08 | 0.76 | 0.76 | 94 | 1011.2 |
| 20260509212511 | 8 | 53 | 0.0 | 1.6 | 0.10 | 0.76 | 0.76 | 94 | 1011.3 |
| 20260509212012 | 8 | 53 | 0.0 | 0.0 | 0.10 | 0.76 | 0.76 | 94 | 1011.4 |
| 20260509211524 | 8 | 53 | 0.0 | 0.0 | 0.08 | 0.74 | 0.74 | 94 | 1011.4 |
| 20260509211010 | 8 | 53 | 0.0 | 0.0 | 0.08 | 0.74 | 0.74 | 94 | 1011.6 |
| 20260509210509 | 8 | 53 | 0.0 | 0.0 | 0.08 | 0.74 | 0.74 | 94 | 1011.6 |
| 20260509210028 | 8 | 97 | 0.0 | 0.0 | 0.08 | 0.74 | 0.74 | 94 | 1011.6 |
| 20260509205509 | 8 | 97 | 0.0 | 0.0 | 0.10 | 0.74 | 0.74 | 94 | 1011.6 |
| 20260509205009 | 8 | 97 | 0.0 | 0.0 | 0.08 | 0.71 | 0.71 | 94 | 1011.6 |
| 20260509204526 | 8 | 97 | 0.0 | 0.0 | 0.10 | 0.71 | 0.71 | 94 | 1011.7 |
| 20260509204007 | 8 | 97 | 0.0 | 0.0 | 0.10 | 0.69 | 0.69 | 94 | 1011.8 |
| 20260509203511 | 8 | 97 | 0.0 | 0.0 | 0.13 | 0.69 | 0.69 | 94 | 1011.9 |
| 20260509203029 | 8 | 97 | 0.0 | 0.0 | 0.13 | 0.69 | 0.69 | 94 | 1012.0 |
| 20260509202509 | 8 | 97 | 0.0 | 0.0 | 0.10 | 0.66 | 0.66 | 94 | 1012.1 |
| 20260509202011 | 8 | 97 | 0.0 | 0.0 | 0.10 | 0.66 | 0.66 | 94 | 1012.2 |
| 20260509201526 | 8 | 97 | 0.0 | 0.0 | 0.10 | 0.66 | 0.66 | 94 | 1012.1 |
| 20260509201008 | 8 | 97 | 0.0 | 0.0 | 0.13 | 0.66 | 0.66 | 94 | 1012.1 |
| 20260509200513 | 8 | 97 | 0.0 | 0.0 | 0.13 | 0.66 | 0.66 | 94 | 1012.3 |
| 20260509200028 | 8 | 97 | 0.0 | 0.0 | 0.13 | 0.66 | 0.66 | 93 | 1012.4 |
| 20260509195511 | 8 | 97 | 0.0 | 0.0 | 0.10 | 0.64 | 0.64 | 93 | 1012.5 |
| 20260509195009 | 8 | 97 | 0.0 | 0.0 | 0.10 | 0.64 | 0.64 | 93 | 1012.5 |
| 20260509194543 | 8 | 97 | 0.0 | 0.0 | 0.08 | 0.61 | 0.61 | 94 | 1012.5 |